Weather History for Dayton Wright, OH

Change the Weather History Date:

Friday, September 20, 2013

  Actual Average (KFFO) Record (KFFO)
Temperature  
Mean Temperature 75 °F -  
Max Temperature 84 °F 72 °F 86 °F (2007)
Min Temperature 66 °F 49 °F 44 °F (2003)
Cooling Degree Days 10    
Growing Degree Days 25 (Base 50)    
Moisture  
Dew Point 67 °F    
Average Humidity 86    
Maximum Humidity 96    
Minimum Humidity 51    
Precipitation  
Precipitation 1.80 in - - ()
Sea Level Pressure  
Sea Level Pressure 29.87 in    
Wind  
Wind Speed 9 mph (SSW)    
Max Wind Speed 21 mph    
Max Gust Speed 30 mph    
Visibility 4 miles    
Events Fog , Rain , Thunderstorm    
Averages and records for this station are not official NWS values.
T = Trace of Precipitation, MM = Missing Value Source: NWS Daily Summary

Daily Weather History Graph

Daily Weather History Graph

Search for Another Location

Airport:

Trip Planner

Search our weather history database for the weather conditions in past years. The results will help you decide how hot, cold, wet, or windy it might be!

Date:

Astronomy

Sep. 20, 2013 Rise Set
Actual Time 7:22 AM EDT 7:36 PM EDT
Civil Twilight 6:55 AM EDT 8:03 PM EDT
Nautical Twilight 6:24 AM EDT 8:35 PM EDT
Astronomical Twilight 5:52 AM EDT 9:07 PM EDT
Moon 8:10 PM EDT (9/20) 8:36 AM EDT (9/20)
Length of Visible Light 13h 07m
Length of Day
12h 13m
Full, 98% of the Moon is Illuminated
Sep 20
Full
Sep 26
Last Quarter
Oct 4
New
Oct 11
First Quarter
Oct 18
Full

Hourly Weather History & Observations

Time (EDT) Temp. Heat Index Dew Point Humidity Pressure Visibility Wind Dir Wind Speed Gust Speed Precip Events Conditions
12:53 AM 68.0 °F - 66.0 °F 93% 29.99 in 5.0 mi South 6.9 mph - N/A   Clear
1:53 AM 68.0 °F - 66.0 °F 93% 29.99 in 4.0 mi South 6.9 mph - N/A   Clear
2:53 AM 69.1 °F - 66.0 °F 90% 29.98 in 4.0 mi South 9.2 mph - N/A   Clear
3:53 AM 68.0 °F - 66.0 °F 93% 29.96 in 3.0 mi South 5.8 mph - N/A   Clear
4:53 AM 68.0 °F - 66.0 °F 93% 29.95 in 3.0 mi South 8.1 mph - 0.01 in   Clear
5:53 AM 68.0 °F - 66.0 °F 93% 29.94 in 4.0 mi South 8.1 mph - N/A   Clear
6:53 AM 66.9 °F - 64.9 °F 93% 29.94 in 3.0 mi South 6.9 mph - N/A   Clear
7:20 AM 66.2 °F - 64.4 °F 94% 29.97 in 2.0 mi South 8.1 mph - N/A   Clear
7:53 AM 68.0 °F - 66.0 °F 93% 29.96 in 3.0 mi South 8.1 mph - N/A   Clear
8:53 AM 69.1 °F - 66.0 °F 90% 29.95 in 4.0 mi South 8.1 mph - N/A   Clear
9:53 AM 72.0 °F - 68.0 °F 87% 29.95 in 7.0 mi SSW 10.4 mph - N/A   Scattered Clouds
10:53 AM 77.0 °F - 66.0 °F 69% 29.94 in 10.0 mi SW 12.7 mph 20.7 mph N/A   Clear
11:53 AM 79.0 °F - 66.0 °F 64% 29.92 in 10.0 mi SW 10.4 mph 18.4 mph N/A   Clear
12:53 PM 81.0 °F 83.3 °F 66.9 °F 62% 29.90 in 10.0 mi WSW 10.4 mph - N/A   Partly Cloudy
1:53 PM 82.9 °F 85.4 °F 66.9 °F 58% 29.88 in 10.0 mi SW 10.4 mph 19.6 mph N/A   Clear
2:53 PM 82.9 °F 84.6 °F 64.9 °F 54% 29.85 in 10.0 mi SW 16.1 mph 19.6 mph N/A   Scattered Clouds
3:53 PM 84.9 °F 86.6 °F 64.9 °F 51% 29.80 in 10.0 mi SSW 12.7 mph 25.3 mph N/A   Clear
4:53 PM 82.0 °F 83.8 °F 64.9 °F 56% 29.80 in 10.0 mi SSW 12.7 mph - N/A   Scattered Clouds
5:53 PM 73.9 °F - 68.0 °F 82% 29.82 in 9.0 mi West 13.8 mph 21.9 mph N/A   Overcast
6:01 PM 71.6 °F - 69.8 °F 94% 29.86 in 1.8 mi West 18.4 mph 25.3 mph 0.08 in Rain Heavy Rain
6:05 PM 71.6 °F - 68.0 °F 88% 29.87 in 0.5 mi SW 20.7 mph 29.9 mph 0.24 in Fog , Rain Heavy Rain
6:09 PM 69.8 °F - 66.2 °F 88% 29.86 in 0.5 mi SW 12.7 mph 29.9 mph 0.34 in Fog , Rain Heavy Rain
6:13 PM 71.6 °F - 66.2 °F 83% 29.86 in 0.5 mi West 8.1 mph 25.3 mph 0.38 in Fog , Rain , Thunderstorm Heavy Thunderstorms and Rain
6:18 PM 71.6 °F - 69.8 °F 94% 29.85 in 1.0 mi West 8.1 mph - 0.44 in Rain , Thunderstorm Heavy Thunderstorms and Rain
6:31 PM 71.6 °F - 68.0 °F 88% 29.85 in 3.0 mi WSW 6.9 mph - 0.49 in Rain , Thunderstorm Light Rain
6:45 PM 71.6 °F - 68.0 °F 88% 29.87 in 7.0 mi SSW 13.8 mph 19.6 mph 0.50 in Rain Light Rain
6:53 PM 71.1 °F - 68.0 °F 90% 29.85 in 2.0 mi WSW 15.0 mph 23.0 mph 0.61 in Rain Heavy Rain
6:57 PM 69.8 °F - 66.2 °F 88% 29.87 in 1.5 mi SW 16.1 mph 26.5 mph 0.03 in Rain Heavy Rain
7:42 PM 69.8 °F - 68.0 °F 94% 29.85 in 2.5 mi SSW 6.9 mph - 0.53 in Rain Rain
7:50 PM 69.8 °F - 68.0 °F 94% 29.85 in 6.0 mi South 5.8 mph - 0.53 in Rain Light Rain
7:53 PM 70.0 °F - 68.0 °F 93% 29.84 in 6.0 mi South 5.8 mph - 0.53 in Rain Light Rain
8:37 PM 69.8 °F - 68.0 °F 94% 29.86 in 2.5 mi South 6.9 mph - 0.06 in Rain Heavy Rain
8:41 PM 69.8 °F - 66.2 °F 88% 29.86 in 1.8 mi South 6.9 mph - 0.12 in Rain Heavy Rain
8:53 PM 69.1 °F - 66.9 °F 93% 29.85 in 2.0 mi South 8.1 mph - 0.23 in Rain Heavy Rain
8:58 PM 69.8 °F - 66.2 °F 88% 29.86 in 2.5 mi South 5.8 mph - 0.02 in Rain Rain
9:09 PM 69.8 °F - 66.2 °F 88% 29.86 in 2.5 mi South 5.8 mph - 0.06 in Rain Rain
9:21 PM 69.8 °F - 68.0 °F 94% 29.86 in 3.0 mi South 4.6 mph - 0.08 in Rain Light Rain
9:33 PM 69.8 °F - 68.0 °F 94% 29.85 in 2.0 mi South 3.5 mph - 0.14 in Rain Heavy Rain
9:45 PM 69.8 °F - 68.0 °F 94% 29.84 in 3.0 mi Calm Calm - 0.16 in Rain Rain
9:53 PM 69.1 °F - 68.0 °F 96% 29.82 in 3.0 mi Calm Calm - 0.17 in Rain Rain
10:53 PM 69.1 °F - 66.9 °F 93% 29.81 in 3.0 mi South 5.8 mph - 0.06 in Rain Rain
10:56 PM 69.8 °F - 66.2 °F 88% 29.83 in 2.5 mi South 5.8 mph - 0.01 in Rain Rain
11:06 PM 69.8 °F - 66.2 °F 88% 29.83 in 3.0 mi South 6.9 mph - 0.04 in Rain Rain
11:10 PM 69.8 °F - 66.2 °F 88% 29.83 in 3.0 mi South 5.8 mph - 0.05 in Rain Rain
11:18 PM 69.8 °F - 66.2 °F 88% 29.82 in 2.5 mi South 4.6 mph - 0.09 in Rain Rain
11:35 PM 69.8 °F - 66.2 °F 88% 29.82 in 3.0 mi South 5.8 mph - 0.13 in Rain Light Rain
11:50 PM 69.8 °F - 66.2 °F 88% 29.81 in 2.5 mi South 4.6 mph - 0.18 in Rain Rain
11:53 PM 69.1 °F - 66.9 °F 93% 29.79 in 2.5 mi SSW 3.5 mph - 0.19 in Rain Rain